When you browse on this site, cookies collect data to enhance your experience and personalize the content and advertising you see.
Visit our Privacy Policy to learn more. By continuing to use the site, you agree to this use of cookies and data.
  • In Portugal
  • List of Countries
  • For 7 days
  • Water Temperature
  • Satellite Maps
  • Weather Map
  • Weather Widgets
  • user-avatar
    Login

    Hourly Weather Siva

    Today, 24 May, Friday

    Time Temperature Precipitation Wind Pressure Humidity
    00:00 +32°C° 0 mm 8 mps 753 mmHg 31%
    01:00 +30°C° 0 mm 7 mps 753 mmHg 33%
    02:00 +28°C° 0 mm 7 mps 753 mmHg 35%
    03:00 +28°C° 0 mm 7 mps 753 mmHg 36%
    04:00 +27°C° 0 mm 6 mps 753 mmHg 36%
    05:00 +27°C° 0 mm 6 mps 754 mmHg 37%
    06:00 +27°C° 0 mm 6 mps 754 mmHg 35%
    07:00 +27°C° 0 mm 6 mps 754 mmHg 33%
    08:00 +28°C° 0 mm 5 mps 755 mmHg 32%
    09:00 +29°C° 0 mm 5 mps 755 mmHg 29%
    10:00 +32°C° 0 mm 5 mps 755 mmHg 25%
    11:00 +33°C° 0 mm 5 mps 755 mmHg 22%
    12:00 +34°C° 0 mm 5 mps 755 mmHg 21%
    13:00 +35°C° 0 mm 5 mps 755 mmHg 20%
    14:00 +37°C° 0 mm 5 mps 755 mmHg 19%
    15:00 +37°C° 0 mm 5 mps 754 mmHg 18%
    16:00 +37°C° 0 mm 5 mps 754 mmHg 18%
    17:00 +37°C° 0 mm 5 mps 754 mmHg 18%
    18:00 +36°C° 0 mm 5 mps 754 mmHg 18%
    19:00 +35°C° 0 mm 4 mps 754 mmHg 19%
    20:00 +35°C° 0 mm 4 mps 755 mmHg 19%
    21:00 +33°C° 0 mm 5 mps 755 mmHg 22%
    22:00 +30°C° 0 mm 6 mps 756 mmHg 25%
    23:00 +29°C° 0 mm 7 mps 756 mmHg 27%

    Tomorrow, 25 May, Saturday

    Time Temperature Precipitation Wind Pressure Humidity
    00:00 +28°C° 0 mm 6 mps 756 mmHg 28%
    01:00 +27°C° 0 mm 5 mps 756 mmHg 28%
    02:00 +27°C° 0 mm 5 mps 756 mmHg 29%
    03:00 +26°C° 0 mm 4 mps 756 mmHg 29%
    04:00 +26°C° 0 mm 4 mps 756 mmHg 29%
    05:00 +25°C° 0 mm 4 mps 756 mmHg 30%
    06:00 +25°C° 0 mm 4 mps 757 mmHg 30%
    07:00 +26°C° 0 mm 4 mps 757 mmHg 29%
    08:00 +26°C° 0 mm 4 mps 757 mmHg 29%
    09:00 +27°C° 0 mm 4 mps 757 mmHg 27%
    10:00 +29°C° 0 mm 4 mps 757 mmHg 24%
    11:00 +30°C° 0 mm 4 mps 757 mmHg 22%
    12:00 +31°C° 0 mm 3 mps 757 mmHg 20%
    13:00 +32°C° 0 mm 2 mps 756 mmHg 19%
    14:00 +34°C° 0 mm 2 mps 756 mmHg 17%
    15:00 +34°C° 0 mm 1 mps 755 mmHg 16%
    16:00 +34°C° 0 mm 1 mps 755 mmHg 15%
    17:00 +34°C° 0 mm 1 mps 754 mmHg 14%
    18:00 +34°C° 0 mm 1 mps 755 mmHg 14%
    19:00 +34°C° 0 mm 2 mps 755 mmHg 15%
    20:00 +34°C° 0 mm 2 mps 755 mmHg 15%
    21:00 +32°C° 0 mm 2 mps 755 mmHg 16%
    22:00 +32°C° 0 mm 2 mps 756 mmHg 16%
    23:00 +31°C° 0 mm 2 mps 756 mmHg 17%

    Day after tomorrow, 26 May, Sunday

    Time Temperature Precipitation Wind Pressure Humidity
    00:00 +30°C° 0 mm 4 mps 756 mmHg 20%
    01:00 +29°C° 0 mm 5 mps 755 mmHg 24%
    02:00 +27°C° 0 mm 7 mps 755 mmHg 27%
    03:00 +27°C° 0 mm 7 mps 755 mmHg 29%
    04:00 +26°C° 0 mm 6 mps 755 mmHg 31%
    05:00 +26°C° 0 mm 5 mps 755 mmHg 33%
    06:00 +26°C° 0 mm 6 mps 755 mmHg 31%
    07:00 +26°C° 0 mm 6 mps 755 mmHg 30%
    08:00 +27°C° 0 mm 7 mps 755 mmHg 28%
    09:00 +29°C° 0 mm 6 mps 755 mmHg 25%
    10:00 +32°C° 0 mm 6 mps 755 mmHg 21%
    11:00 +33°C° 0 mm 5 mps 755 mmHg 18%
    12:00 +34°C° 0 mm 5 mps 755 mmHg 16%
    13:00 +35°C° 0 mm 4 mps 755 mmHg 14%
    14:00 +36°C° 0 mm 4 mps 754 mmHg 13%
    15:00 +36°C° 0 mm 3 mps 754 mmHg 12%
    16:00 +37°C° 0 mm 3 mps 753 mmHg 12%
    17:00 +37°C° 0 mm 2 mps 753 mmHg 11%
    18:00 +36°C° 0 mm 3 mps 753 mmHg 12%
    19:00 +36°C° 0 mm 4 mps 753 mmHg 12%
    20:00 +35°C° 0 mm 4 mps 753 mmHg 13%
    21:00 +34°C° 0 mm 5 mps 753 mmHg 13%
    22:00 +34°C° 0 mm 5 mps 753 mmHg 13%
    23:00 +34°C° 0 mm 5 mps 753 mmHg 14%

    27 May, Monday

    Time Temperature Precipitation Wind Pressure Humidity
    00:00 +33°C° 0 mm 5 mps 753 mmHg 14%
    01:00 +32°C° 0 mm 6 mps 753 mmHg 15%
    02:00 +32°C° 0 mm 6 mps 752 mmHg 16%
    03:00 +30°C° 0 mm 6 mps 752 mmHg 20%
    04:00 +29°C° 0 mm 6 mps 752 mmHg 23%
    05:00 +28°C° 0 mm 6 mps 752 mmHg 27%
    06:00 +29°C° 0 mm 6 mps 753 mmHg 26%
    07:00 +29°C° 0 mm 7 mps 753 mmHg 25%
    08:00 +30°C° 0 mm 7 mps 753 mmHg 24%
    09:00 +33°C° 0 mm 7 mps 753 mmHg 21%
    10:00 +35°C° 0 mm 7 mps 753 mmHg 17%
    11:00 +38°C° 0 mm 7 mps 753 mmHg 14%
    12:00 +40°C° 0 mm 6 mps 752 mmHg 13%
    13:00 +41°C° 0 mm 6 mps 752 mmHg 12%
    14:00 +42°C° 0 mm 6 mps 752 mmHg 11%
    15:00 +44°C° 0 mm 6 mps 751 mmHg 11%
    16:00 +43°C° 0 mm 5 mps 751 mmHg 11%
    17:00 +43°C° 0 mm 5 mps 751 mmHg 11%
    18:00 +42°C° 0 mm 5 mps 751 mmHg 11%
    19:00 +41°C° 0 mm 5 mps 752 mmHg 12%
    20:00 +40°C° 0 mm 5 mps 752 mmHg 12%
    21:00 +39°C° 0 mm 6 mps 752 mmHg 11%
    22:00 +38°C° 0 mm 6 mps 752 mmHg 11%
    23:00 +38°C° 0 mm 7 mps 753 mmHg 10%

    28 May, Tuesday

    Time Temperature Precipitation Wind Pressure Humidity
    00:00 +36°C° 0 mm 7 mps 752 mmHg 12%
    01:00 +35°C° 0 mm 6 mps 752 mmHg 14%
    02:00 +34°C° 0 mm 6 mps 752 mmHg 16%
    03:00 +33°C° 0 mm 6 mps 752 mmHg 18%
    04:00 +32°C° 0 mm 6 mps 752 mmHg 21%
    05:00 +30°C° 0 mm 6 mps 752 mmHg 23%
    06:00 +32°C° 0 mm 6 mps 752 mmHg 22%
    07:00 +32°C° 0 mm 6 mps 753 mmHg 21%
    08:00 +33°C° 0 mm 6 mps 753 mmHg 21%
    09:00 +35°C° 0 mm 6 mps 753 mmHg 18%
    10:00 +38°C° 0 mm 6 mps 753 mmHg 15%
    11:00 +41°C° 0 mm 6 mps 753 mmHg 12%
    12:00 +42°C° 0 mm 5 mps 753 mmHg 11%
    13:00 +43°C° 0 mm 4 mps 752 mmHg 10%
    14:00 +44°C° 0 mm 4 mps 752 mmHg 9%
    15:00 +44°C° 0 mm 4 mps 752 mmHg 9%
    16:00 +44°C° 0 mm 4 mps 752 mmHg 9%
    17:00 +44°C° 0 mm 4 mps 752 mmHg 9%
    18:00 +43°C° 0 mm 4 mps 752 mmHg 9%
    19:00 +42°C° 0 mm 4 mps 752 mmHg 10%
    20:00 +41°C° 0 mm 4 mps 753 mmHg 11%
    21:00 +40°C° 0 mm 4 mps 753 mmHg 10%
    22:00 +39°C° 0 mm 5 mps 753 mmHg 10%
    23:00 +39°C° 0 mm 6 mps 754 mmHg 10%

    29 May, Wednesday

    Time Temperature Precipitation Wind Pressure Humidity
    00:00 +36°C° 0 mm 6 mps 753 mmHg 10%
    01:00 +35°C° 0 mm 6 mps 753 mmHg 11%
    02:00 +34°C° 0 mm 6 mps 753 mmHg 11%
    03:00 +33°C° 0 mm 6 mps 753 mmHg 13%
    04:00 +32°C° 0 mm 6 mps 753 mmHg 16%
    05:00 +30°C° 0 mm 6 mps 753 mmHg 18%
    06:00 +32°C° 0 mm 6 mps 754 mmHg 20%
    07:00 +32°C° 0 mm 6 mps 754 mmHg 22%
    08:00 +33°C° 0 mm 6 mps 754 mmHg 24%
    09:00 +34°C° 0 mm 6 mps 755 mmHg 21%
    10:00 +36°C° 0 mm 6 mps 755 mmHg 18%
    11:00 +39°C° 0 mm 6 mps 755 mmHg 15%
    12:00 +40°C° 0 mm 6 mps 754 mmHg 14%
    13:00 +42°C° 0 mm 6 mps 754 mmHg 13%
    14:00 +44°C° 0 mm 6 mps 753 mmHg 12%
    15:00 +44°C° 0 mm 6 mps 753 mmHg 12%
    16:00 +44°C° 0 mm 6 mps 753 mmHg 11%
    17:00 +44°C° 0 mm 6 mps 753 mmHg 11%
    18:00 +42°C° 0 mm 6 mps 753 mmHg 12%
    19:00 +41°C° 0 mm 5 mps 754 mmHg 13%
    20:00 +40°C° 0 mm 5 mps 754 mmHg 14%
    21:00 +39°C° 0 mm 5 mps 754 mmHg 14%
    22:00 +37°C° 0 mm 5 mps 755 mmHg 15%
    23:00 +35°C° 0 mm 6 mps 755 mmHg 15%
    Show more